C/2016 T3 ( PanSTARRS )

Japanese version
Home page
Updated on August 28, 2018

---------------------------------------------------------------------

* Profile

Discovery Date October 10, 2016
Magnitude 20.1 mag
Discoverer Pan-STARRS 1 telescope (Haleakala)

* Pictures

* Orbital Elements

Epoch 2017 Sept. 4.0 TT = JDT 2458000.5
T 2017 Sept. 6.98126 TT                                 MPCW
q   2.6494793            (2000.0)            P               Q
z  +0.0070469      Peri.  194.67846     -0.26321165     -0.88443705
 +/-0.0000021      Node   271.74836     +0.91943904     -0.10901412
e   0.9813293      Incl.   22.67630     +0.29214976     -0.45374776
From 406 observations 2016 Oct. 10-2018 Mar. 24, mean residual 0".6.

* Finding Charts

* Magnitudes Graph

        m1 = 10.2 + 5 log d + 10.0 log r(t + 50)

---------------------------------------------------------------------

The orbital elements are published on M.P.E.C. 2018-F152.
The charts are made with StellaNavigator Ver.10 (AstroArts).
The magnitudes graphs are made with Comet for Windows.

---------------------------------------------------------------------

Copyright(C) Seiichi Yoshida (comet@aerith.net). All rights reserved.